This is the latest recevied weather packets stored in our database for station/object N2PUI. If no packets are shown the sender has not sent any weather packets the latest 10 day(s).
| Time | Temp. | Humidity | Pressure | Rain* | Wind** | Luminosity | Snow |
|---|---|---|---|---|---|---|---|
| 1777517940 | 10.56° C | 95% | 1007.2 hPa | 0 mm | - | 0 W/m² | - |
| 1777517636 | 10.56° C | 95% | 1007.1 hPa | 0 mm | - | 0 W/m² | - |
| 1777517333 | 10.56° C | 95% | 1007.2 hPa | 0 mm | - | 0 W/m² | - |
| 1777517032 | 10.56° C | 95% | 1007.3 hPa | 0 mm | - | 0 W/m² | - |
| 1777516729 | 10.56° C | 95% | 1007.3 hPa | 0 mm | - | 0 W/m² | - |
| 1777516425 | 10.56° C | 95% | 1007.2 hPa | 1.78 mm | - | 0 W/m² | - |
| 1777516120 | 10.56° C | 95% | 1007.4 hPa | 1.78 mm | - | 0 W/m² | - |
| 1777515818 | 10.56° C | 95% | 1007.2 hPa | 0 mm | - | 0 W/m² | - |
| 1777515515 | 10.56° C | 95% | 1007.6 hPa | 0 mm | - | 0 W/m² | - |
| 1777515212 | 10.56° C | 95% | 1007.4 hPa | 0 mm | - | 0 W/m² | - |
| 1777514907 | 10.56° C | 95% | 1007.7 hPa | 1.27 mm | - | 0 W/m² | - |
| 1777514604 | 10.56° C | 95% | 1007.5 hPa | 1.27 mm | - | 0 W/m² | - |
| 1777514302 | 10.56° C | 95% | 1007.7 hPa | 1.78 mm | - | 0 W/m² | - |
| 1777513998 | 10.56° C | 95% | 1007.7 hPa | 1.78 mm | - | 0 W/m² | - |
| 1777513091 | 10.56° C | 95% | 1007.6 hPa | 3.05 mm | - | 0 W/m² | - |
| 1777512178 | 10.56° C | 95% | 1007.6 hPa | 3.05 mm | - | 0 W/m² | - |
| 1777511875 | 10.56° C | 95% | 1007.4 hPa | 6.1 mm | - | 0 W/m² | - |
| 1777511271 | 10.56° C | 95% | 1007.4 hPa | 3.05 mm | - | 0 W/m² | - |
| 1777510966 | 10.56° C | 95% | 1007.4 hPa | 3.05 mm | - | 0 W/m² | - |
| 1777509448 | 11.11° C | 95% | 1007.4 hPa | 1.78 mm | - | 0 W/m² | - |
| 1777507934 | 11.11° C | 94% | 1007.2 hPa | 7.87 mm | - | 0 W/m² | - |
| 1777507630 | 11.11° C | 94% | 1007.5 hPa | 6.1 mm | - | 0 W/m² | - |
| 1777507328 | 11.11° C | 94% | 1007.4 hPa | 4.83 mm | - | 0 W/m² | - |
| 1777507025 | 11.11° C | 94% | 1007.3 hPa | 3.05 mm | - | 0 W/m² | - |
| 1777505810 | 11.11° C | 93% | 1007.3 hPa | 9.65 mm | - | 0 W/m² | - |
* Rain latest hour (hover to see other rain measurements)
** Current wind speed in m/s (hover to see current wind gust speed)